| time (UTC) | temp F | wind direction | speed MPH | gust MPH | rain 1hr in | rain 24hr in | rain mn in | humidity % | barometer mb |
| 20260507193059 | 49 | 9 | 4.0 | 0.0 | 0.00 | 0.00 | 0.00 | 53 | 1009.4 |
| 20260507191547 | 49 | 360 | 3.0 | 0.0 | 0.00 | 0.00 | 0.00 | 53 | 1009.7 |
| 20260507190137 | 48 | 344 | 2.0 | 0.0 | 0.00 | 0.00 | 0.00 | 54 | 1009.9 |
| 20260507184629 | 47 | 19 | 2.0 | 0.0 | 0.00 | 0.00 | 0.00 | 53 | 1010.1 |
| 20260507183020 | 47 | 17 | 3.0 | 0.0 | 0.00 | 0.00 | 0.00 | 53 | 1010.3 |
| 20260507181511 | 47 | 12 | 2.0 | 0.0 | 0.00 | 0.00 | 0.00 | 54 | 1010.3 |
| 20260507180002 | 47 | 12 | 3.0 | 0.0 | 0.00 | 0.00 | 0.00 | 54 | 1010.3 |
| 20260507174556 | 47 | 355 | 5.0 | 0.0 | 0.00 | 0.00 | 0.00 | 54 | 1010.3 |
| 20260507173146 | 48 | 347 | 3.0 | 0.0 | 0.00 | 0.00 | 0.00 | 54 | 1010.2 |
| 20260507171637 | 47 | 9 | 3.0 | 0.0 | 0.00 | 0.00 | 0.00 | 53 | 1010.5 |
| 20260507170028 | 47 | 355 | 5.0 | 0.0 | 0.00 | 0.00 | 0.00 | 54 | 1010.6 |
| 20260507164517 | 47 | 342 | 5.0 | 0.0 | 0.00 | 0.00 | 0.00 | 54 | 1010.6 |
| 20260507163010 | 48 | 349 | 4.0 | 0.0 | 0.00 | 0.00 | 0.00 | 53 | 1010.8 |
| 20260507161603 | 47 | 347 | 4.0 | 0.0 | 0.00 | 0.00 | 0.00 | 54 | 1010.9 |
| 20260507160054 | 47 | 324 | 3.0 | 0.0 | 0.00 | 0.00 | 0.00 | 54 | 1011.1 |
| 20260507154550 | 46 | 300 | 4.0 | 0.0 | 0.00 | 0.00 | 0.00 | 54 | 1011.1 |
| 20260507153034 | 47 | 299 | 3.0 | 0.0 | 0.00 | 0.00 | 0.00 | 54 | 1011.0 |
| 20260507151523 | 47 | 299 | 2.0 | 0.0 | 0.00 | 0.00 | 0.00 | 54 | 1011.0 |
| 20260507150022 | 46 | 298 | 3.0 | 0.0 | 0.00 | 0.00 | 0.00 | 54 | 1011.2 |
| 20260507144518 | 46 | 298 | 3.0 | 0.0 | 0.00 | 0.00 | 0.00 | 54 | 1011.2 |
| 20260507143103 | 46 | 309 | 3.0 | 0.0 | 0.00 | 0.00 | 0.00 | 54 | 1011.3 |
| 20260507141649 | 45 | 309 | 4.0 | 0.0 | 0.00 | 0.00 | 0.00 | 54 | 1011.5 |
| 20260507140043 | 45 | 309 | 4.0 | 0.0 | 0.00 | 0.00 | 0.00 | 54 | 1011.6 |
| 20260507134534 | 45 | 308 | 4.0 | 0.0 | 0.00 | 0.00 | 0.00 | 53 | 1011.7 |
| 20260507133025 | 45 | 338 | 5.0 | 0.0 | 0.00 | 0.00 | 0.00 | 52 | 1011.7 |
| 20260507131513 | 45 | 330 | 6.0 | 0.0 | 0.00 | 0.00 | 0.00 | 50 | 1011.7 |
| 20260507130004 | 45 | 321 | 5.0 | 0.0 | 0.00 | 0.00 | 0.00 | 41 | 1011.7 |
| 20260507124655 | 45 | 316 | 6.0 | 0.0 | 0.00 | 0.00 | 0.00 | 45 | 1011.7 |
| 20260507123046 | 45 | 306 | 6.0 | 0.0 | 0.00 | 0.00 | 0.00 | 50 | 1011.7 |
| 20260507121537 | 45 | 303 | 6.0 | 0.0 | 0.00 | 0.00 | 0.00 | 40 | 1011.7 |
| 20260507120029 | 45 | 304 | 6.0 | 0.0 | 0.00 | 0.00 | 0.00 | 43 | 1011.6 |
| 20260507114520 | 45 | 300 | 5.0 | 0.0 | 0.00 | 0.00 | 0.00 | 44 | 1011.5 |
| 20260507113015 | 45 | 302 | 5.0 | 0.0 | 0.00 | 0.00 | 0.00 | 42 | 1011.4 |
| 20260507111603 | 45 | 302 | 5.0 | 0.0 | 0.00 | 0.00 | 0.00 | 45 | 1011.2 |
| 20260507110055 | 45 | 304 | 5.0 | 0.0 | 0.00 | 0.00 | 0.00 | 43 | 1011.2 |
| 20260507104543 | 45 | 292 | 6.0 | 0.0 | 0.00 | 0.00 | 0.00 | 39 | 1011.2 |
| 20260507103033 | 45 | 307 | 6.0 | 0.0 | 0.00 | 0.00 | 0.00 | 46 | 1011.1 |
| 20260507101625 | 45 | 303 | 6.0 | 0.0 | 0.00 | 0.00 | 0.00 | 45 | 1011.0 |
| 20260507100015 | 44 | 290 | 5.0 | 0.0 | 0.00 | 0.00 | 0.00 | 45 | 1010.6 |
| 20260507094505 | 44 | 300 | 7.0 | 0.0 | 0.00 | 0.00 | 0.00 | 45 | 1010.7 |
| 20260507093157 | 45 | 291 | 8.0 | 0.0 | 0.00 | 0.00 | 0.00 | 43 | 1010.9 |
| 20260507091550 | 45 | 300 | 7.0 | 0.0 | 0.00 | 0.00 | 0.00 | 44 | 1010.8 |
| 20260507090041 | 45 | 319 | 7.0 | 0.0 | 0.00 | 0.00 | 0.00 | 46 | 1010.8 |
| 20260507084531 | 45 | 303 | 6.0 | 0.0 | 0.00 | 0.00 | 0.00 | 44 | 1010.9 |
| 20260507083022 | 45 | 300 | 7.0 | 0.0 | 0.00 | 0.00 | 0.00 | 48 | 1010.9 |
| 20260507081612 | 45 | 302 | 8.0 | 0.0 | 0.00 | 0.00 | 0.00 | 44 | 1011.0 |
| 20260507080003 | 45 | 313 | 8.0 | 0.0 | 0.00 | 0.00 | 0.00 | 40 | 1011.1 |
| 20260507074654 | 45 | 313 | 8.0 | 0.0 | 0.00 | 0.00 | 0.00 | 38 | 1011.1 |
| 20260507073145 | 45 | 309 | 9.0 | 0.0 | 0.00 | 0.00 | 0.00 | 36 | 1011.2 |
| 20260507071636 | 45 | 306 | 9.0 | 0.0 | 0.00 | 0.00 | 0.00 | 33 | 1010.9 |
| 20260507070031 | 44 | 310 | 7.0 | 0.0 | 0.00 | 0.00 | 0.00 | 22 | 1010.9 |
| 20260507064518 | 45 | 300 | 7.0 | 0.0 | 0.00 | 0.00 | 0.00 | 22 | 1010.7 |
| 20260507063009 | 45 | 306 | 9.0 | 0.0 | 0.00 | 0.00 | 0.00 | 21 | 1010.7 |
| 20260507061559 | 45 | 306 | 8.0 | 0.0 | 0.00 | 0.00 | 0.00 | 15 | 1010.9 |
| 20260507060050 | 45 | 318 | 9.0 | 0.0 | 0.00 | 0.00 | 0.00 | 10 | 1011.1 |
| 20260507054541 | 45 | 309 | 9.0 | 0.0 | 0.00 | 0.00 | 0.00 | 100 | 1011.1 |
| 20260507053133 | 45 | 311 | 9.0 | 0.0 | 0.00 | 0.00 | 0.00 | 100 | 1011.2 |
| 20260507051521 | 45 | 309 | 8.0 | 0.0 | 0.00 | 0.00 | 0.00 | 100 | 1011.1 |
| 20260507050011 | 45 | 312 | 8.0 | 0.0 | 0.00 | 0.00 | 0.00 | 100 | 1011.0 |
| 20260507044503 | 45 | 315 | 9.0 | 0.0 | 0.00 | 0.00 | 0.00 | 100 | 1011.1 |
| 20260507043053 | 45 | 317 | 10.0 | 0.0 | 0.00 | 0.00 | 0.00 | 100 | 1011.1 |
| 20260507041544 | 45 | 307 | 10.0 | 0.0 | 0.00 | 0.00 | 0.00 | 100 | 1010.8 |
| 20260507040138 | 45 | 304 | 9.0 | 0.0 | 0.00 | 0.00 | 0.00 | 100 | 1010.8 |
| 20260507034627 | 45 | 304 | 8.0 | 0.0 | 0.00 | 0.00 | 0.56 | 100 | 1010.7 |
| 20260507033016 | 45 | 316 | 9.0 | 0.0 | 0.00 | 0.00 | 0.56 | 100 | 1010.7 |
| 20260507031506 | 45 | 309 | 9.0 | 0.0 | 0.00 | 0.00 | 0.56 | 100 | 1010.5 |
| 20260507030058 | 45 | 305 | 6.0 | 0.0 | 0.00 | 0.00 | 0.56 | 100 | 1010.7 |
| 20260507024602 | 44 | 302 | 5.0 | 0.0 | 0.00 | 0.00 | 0.56 | 100 | 1010.7 |
| 20260507023046 | 44 | 298 | 5.0 | 0.0 | 0.00 | 0.00 | 0.56 | 100 | 1010.6 |
| 20260507021533 | 44 | 304 | 5.0 | 0.0 | 0.00 | 0.00 | 0.56 | 100 | 1010.7 |
| 20260507020028 | 44 | 320 | 6.0 | 0.0 | 0.00 | 0.00 | 0.56 | 100 | 1010.8 |
| 20260507014521 | 44 | 327 | 5.0 | 0.0 | 0.00 | 0.00 | 0.56 | 100 | 1010.9 |
| 20260507013103 | 46 | 336 | 5.0 | 0.0 | 0.00 | 0.00 | 0.56 | 100 | 1010.8 |
| 20260507011555 | 47 | 316 | 4.0 | 0.0 | 0.00 | 0.00 | 0.56 | 100 | 1010.4 |
| 20260507010050 | 47 | 315 | 3.0 | 0.0 | 0.00 | 0.00 | 0.56 | 100 | 1010.3 |
| 20260507004639 | 47 | 307 | 2.0 | 0.0 | 0.00 | 0.00 | 0.56 | 100 | 1010.1 |
| 20260507003041 | 47 | 307 | 2.0 | 0.0 | 0.00 | 0.00 | 0.56 | 100 | 1009.8 |
| 20260507001520 | 47 | 307 | 1.0 | 0.0 | 0.00 | 0.00 | 0.56 | 100 | 1009.8 |
| 20260507000010 | 47 | 307 | 2.0 | 0.0 | 0.00 | 0.00 | 0.56 | 100 | 1009.9 |
| 20260506234502 | 46 | 360 | 1.0 | 0.0 | 0.00 | 0.00 | 0.56 | 100 | 1009.7 |
| 20260506233152 | 46 | 360 | 1.0 | 0.0 | 0.00 | 0.00 | 0.56 | 100 | 1009.4 |
| 20260506231543 | 46 | 360 | 1.0 | 0.0 | 0.00 | 0.00 | 0.56 | 100 | 1009.3 |
| 20260506230136 | 46 | 360 | 0.0 | 0.0 | 0.00 | 0.00 | 0.56 | 100 | 1009.1 |
| 20260506224526 | 46 | 360 | 0.0 | 0.0 | 0.00 | 0.00 | 0.56 | 100 | 1008.8 |
| 20260506223017 | 45 | 360 | 0.0 | 0.0 | 0.00 | 0.00 | 0.56 | 100 | 1008.8 |
| 20260506221508 | 45 | 360 | 1.0 | 0.0 | 0.00 | 0.00 | 0.56 | 100 | 1009.3 |
| 20260506220101 | 45 | 360 | 1.0 | 0.0 | 0.00 | 0.00 | 0.56 | 100 | 1009.0 |
| 20260506213057 | 45 | 360 | 0.0 | 0.0 | 0.00 | 0.00 | 0.56 | 100 | 1008.8 |
| 20260506211534 | 45 | 360 | 1.0 | 0.0 | 0.00 | 0.00 | 0.56 | 100 | 1008.8 |
| 20260506210027 | 45 | 360 | 2.0 | 0.0 | 0.00 | 0.00 | 0.56 | 100 | 1009.0 |
| 20260506204515 | 45 | 360 | 2.0 | 0.0 | 0.00 | 0.00 | 0.56 | 100 | 1008.8 |
| 20260506203006 | 45 | 355 | 3.0 | 0.0 | 0.00 | 0.00 | 0.56 | 100 | 1008.7 |
| 20260506201558 | 44 | 351 | 3.0 | 0.0 | 0.00 | 0.00 | 0.56 | 100 | 1008.6 |
| 20260506200149 | 44 | 355 | 4.0 | 0.0 | 0.00 | 0.00 | 0.56 | 100 | 1008.5 |
| 20260506194541 | 44 | 343 | 5.0 | 0.0 | 0.00 | 0.00 | 0.56 | 100 | 1008.7 |